Regional Weather Roundup
Issued by NWS

Home | Current Version | Previous Version | Graphics & Text | Print | Product List | Glossary On
Versions: 1 2 3 4 5 6 7 8 9 10 11 12 13 14 15 16 17 18 19 20 21 22 23 24 25 26 27 28 29 30 31 32 33 34 35 36 37 38 39 40 41 42 43 44 45 46 47 48 49 50
000
ASUS45 KCYS 010510
RWRWY

WYOMING REGIONAL WEATHER ROUNDUP
NATIONAL WEATHER SERVICE CHEYENNE WY
1100 PM MDT MON AUG 31 2015

NOTE:  "FAIR" INDICATES FEW OR NO CLOUDS BELOW 12,000 FEET
WITH NO SIGNIFICANT WEATHER AND/OR OBSTRUCTIONS TO VISIBILITY.

WYZ001-010600-
YELLOWSTONE NATIONAL PARK

CITY           SKY/WX    TMP DP  RH WIND       PRES   REMARKS
LK YELLOWSTONE   N/A     40  28  62 NW3       30.23S
W YELLOWSTONE  NOT AVBL

$$
WYZ002>013-054>058-071-098>099-010600-
NORTHERN WYOMING

CITY           SKY/WX    TMP DP  RH WIND       PRES   REMARKS
JACKSON        FAIR      48  30  49 N5        30.13S
CODY           FAIR      64  30  27 SW10      30.00S
GREYBULL       FAIR      72  30  21 NW9       29.90S
WORLAND        FAIR      63  34  33 SW10      29.92R
SHERIDAN       FAIR      55  45  68 SW5       29.94S
BUFFALO        FAIR      64  41  42 W10       30.01S
GILLETTE       FAIR      64  53  67 E8        29.93F
HULETT         FAIR      61  54  77 N5        29.96F
NEWCASTLE      FAIR      70  46  43 SE18G26   29.97S

$$
WYZ014>020-022>026-101>103-010600-
CENTRAL WYOMING

CITY           SKY/WX    TMP DP  RH WIND       PRES   REMARKS
BIG PINEY      FAIR      50  21  32 NE8       30.19F
PINEDALE       FAIR      45  28  53 NW5       30.20F
DUBOIS         FAIR      52  23  32 NW7       30.18F
LANDER         FAIR      64  26  23 S5        30.04R
RIVERTON       FAIR      65  25  22 NW15      30.03S
CASPER         FAIR      68  39  34 SW20      30.03S
DOUGLAS        FAIR      71  40  32 SW10      30.02R

$$
WYZ021-027>030-104>119-010600-
SOUTHERN WYOMING

CITY           SKY/WX    TMP DP  RH WIND       PRES   REMARKS
EVANSTON       FAIR      61  32  33 SE9       30.20S
KEMMERER       FAIR      57  27  30 NW3       30.20F
FORT BRIDGER   PTCLDY    61  32  33 SW12      30.23R
ROCK SPRINGS   FAIR      60  42  51 S8        30.17S
DIXON          FAIR      55  47  75 NE7       30.24F
RAWLINS        FAIR      59  39  47 S7        30.18S
SARATOGA       FAIR      54  45  71 SE13      30.23S
LARAMIE        FAIR      53  44  71 S12       30.22F
CHEYENNE       FAIR      57  47  69 SW9       30.16F
TORRINGTON     FAIR      67  50  54 SW3       30.02R
PINE BLUFFS    FAIR      55  50  82 S6        30.12S

$$



USA.gov is the U.S. government's official web portal to all federal, state and local government web resources and services.